Flag for United Kingdom Weather past 2 weeks in Edinburgh, Scotland, United Kingdom

50 °F

Mostly cloudy.

Feels Like: 44 °F
Forecast: 38 / 53 °F
Wind: 16 mph from Southwest

Location: Edinburgh Airport

Current Time: Nov 27, 2015 at 8:34:49 AM

Latest Report: Nov 27, 2015 at 7:50 AM

Visibility: N/A

Pressure: 29.50 "Hg

Humidity: 88%

Dew point: 46 °F

Location of EdinburghLocation

Historic Weather in Edinburgh — Graph


Edinburgh temperature yesterday

Maximum temperature yesterday: 55 °F (at 12:50 PM)
Minimum temperature yesterday: 45 °F (at 1:20 AM)
Average temperature yesterday: 51 °F

Past Weeks' High & Low Weather Summary

High59 °F (Nov 15, 6:20 PM)100% (Nov 14, 8:20 PM)30.21 "Hg (Nov 14, 8:20 PM)
Low30 °F (Nov 20, 8:50 PM)56% (Nov 21, 10:50 AM)29.12 "Hg (Nov 16, 1:20 AM)
Average44 °F85%29.68 "Hg
* Reported Nov 12 6:20 AM — Nov 27 6:50 AM, Edinburgh, Weather by CustomWeather, © 2015

Note: Actual official high and low records may vary slightly from our data, if they occured in-between our weather recording intervals... More about our weather records


Edinburgh weather history for previous 24 hours

Time TempWeatherWind HumidityBarometerVisibility
6:50 AM
Fri, Nov 27
52 °FMostly cloudy.17 mph82%29.56 "HgN/A
6:20 AM52 °FPassing clouds.20 mph88%29.56 "HgN/A
5:50 AM50 °FLight rain. Passing clouds.17 mph94%29.59 "Hg6 mi
5:20 AM52 °FOvercast.20 mph88%29.62 "HgN/A
4:50 AM52 °FPartly cloudy.17 mph88%29.65 "HgN/A
3:50 AM52 °FLight rain. Passing clouds.14 mph94%29.68 "Hg4 mi
3:20 AM52 °FMostly cloudy.15 mph94%29.68 "Hg5 mi
2:50 AM54 °FOvercast.15 mph88%29.71 "Hg4 mi
2:20 AM54 °FOvercast.16 mph88%29.74 "HgN/A
1:50 AM54 °FOvercast.16 mph88%29.74 "HgN/A
1:20 AM54 °FOvercast.15 mph88%29.77 "HgN/A
12:50 AM54 °FOvercast.14 mph88%29.77 "HgN/A
12:20 AM54 °FOvercast.15 mph88%29.80 "HgN/A
11:50 PM
Thu, Nov 26
54 °FOvercast.20 mph88%29.80 "HgN/A
11:20 PM54 °FOvercast.24 mph88%29.80 "HgN/A
10:50 PM54 °FOvercast.20 mph88%29.83 "HgN/A
9:50 PM54 °FOvercast.17 mph88%29.86 "HgN/A
9:20 PM54 °FOvercast.16 mph94%29.86 "HgN/A
8:50 PM54 °FLow clouds.20 mph94%29.86 "HgN/A
8:20 PM54 °FLow clouds.17 mph94%29.89 "HgN/A
7:50 PM54 °FOvercast.16 mph94%29.89 "HgN/A
7:20 PM54 °FMostly cloudy.16 mph94%29.89 "HgN/A
6:50 PM54 °FLight rain. Overcast.13 mph88%29.92 "HgN/A
6:20 PM54 °FLight rain. Overcast.18 mph88%29.92 "HgN/A
5:50 PM54 °FLight rain. Low clouds.17 mph88%29.92 "Hg4 mi
5:20 PM54 °FOvercast.16 mph88%29.92 "HgN/A
4:50 PM54 °FPassing clouds.16 mph88%29.92 "HgN/A
4:20 PM54 °FMostly cloudy.14 mph88%29.92 "HgN/A
3:50 PM54 °FPassing clouds.16 mph88%29.92 "HgN/A
3:20 PM54 °FPartly sunny.13 mph88%29.92 "HgN/A
2:50 PM54 °FMore clouds than sun.15 mph88%29.92 "HgN/A
2:20 PM54 °FLow clouds.16 mph88%29.92 "HgN/A
1:50 PM54 °FMostly cloudy.15 mph88%29.95 "HgN/A
1:20 PM54 °FPartly sunny.15 mph88%29.95 "HgN/A
12:50 PM55 °FBroken clouds.14 mph82%29.95 "HgN/A
12:20 PM54 °FPartly sunny.12 mph88%29.95 "HgN/A
11:50 AM52 °FOvercast.10 mph94%29.98 "HgN/A
11:20 AM52 °FOvercast.13 mph88%29.98 "HgN/A
10:50 AM52 °FPartly sunny.13 mph88%29.98 "HgN/A
10:20 AM52 °FBroken clouds.13 mph88%29.98 "HgN/A
9:50 AM50 °FPartly sunny.9 mph88%29.98 "HgN/A
9:20 AM48 °FPartly sunny.13 mph94%29.98 "HgN/A
8:50 AM48 °FPartly sunny.14 mph94%30.01 "HgN/A
8:20 AM46 °FScattered clouds.10 mph93%29.98 "HgN/A
Weather by CustomWeather, © 2015

See weather overviewHow to use our weather pages